[[{"header":{"parameterUnit":"m.s-1","parameterCategory":1,"la1":30.2991,"la2":30.254,"lo1":-89.0895,"lo2":-89.0444,"dy":0.0017,"dx":0.0017,"nx":28,"ny":28,"refTime":"2024-04-27T21:00:00:Z","depth":0,"parameterNumber":2,"parameterNumberName":"U-component_of_WINDS"},"data":[0,0,0,0,0,0,0,0,0,0,0,0,0,0,0,0,0,0,0,0,0,0,0,0,0,0,0,0,0,0,0,0,0,0,0,0,0,0,0,0,0,0,0,0,0,0,0,0,0,0,0,0,0,0,0,0,0,0,-5.1175,-5.1175,0,-5.1166,-5.1165,-5.1165,-5.1114,-5.1112,-5.1111,-5.111,-5.1099,-5.11,-5.1101,0,0,0,0,0,0,0,0,0,0,0,0,0,-5.1151,-5.1151,-5.1175,-5.1175,-5.1175,-5.1166,-5.1165,-5.1165,-5.1114,-5.1112,-5.1111,-5.111,-5.1099,-5.11,-5.1101,0,0,0,0,0,0,0,0,0,0,0,0,0,-5.1153,-5.1152,-5.1175,-5.1148,-5.1146,-5.1166,-5.1165,-5.1165,-5.1114,-5.1112,-5.1111,-5.1109,-5.1099,-5.11,-5.1101,-5.1146,0,0,-5.1105,-5.1106,0,0,0,0,0,0,0,0,-5.1153,-5.1154,-5.1152,-5.115,-5.1147,-5.1139,-5.1153,-5.1159,-5.1115,-5.1126,-5.111,-5.1108,-5.1114,-5.1114,-5.1116,-5.1146,-5.1145,-5.1105,-5.1106,-5.1107,-5.1107,0,0,0,0,0,0,0,-5.1153,-5.1154,-5.1171,-5.1152,-5.1149,-5.1137,-5.1135,-5.1154,-5.1131,-5.1125,-5.1121,-5.1121,-5.1112,-5.1115,-5.1116,-5.1145,-5.1105,-5.1106,-5.1107,-5.1108,-5.1212,-5.1214,0,0,0,0,0,0,-5.1157,-5.1154,-5.1172,-5.1171,-5.1146,-5.1139,-5.1137,-5.1144,-5.113,-5.1126,-5.1122,-5.1119,-5.1114,-5.1114,-5.1115,-5.1166,-5.1107,-5.1108,-5.1109,-5.121,-5.1213,-5.1215,0,0,0,0,0,0,-5.1156,-5.1159,-5.1172,-5.1162,-5.1163,-5.1141,-5.1149,-5.1144,-5.1147,-5.1128,-5.1124,-5.1129,-5.1112,-5.1113,-5.1139,-5.1165,-5.1108,-5.111,-5.1208,-5.1211,-5.1214,-5.1269,0,0,0,0,0,0,-5.1156,-5.1159,-5.1175,-5.1163,-5.1163,-5.1196,-5.1151,-5.1145,-5.1149,-5.1144,-5.1133,-5.113,-5.1111,-5.1137,-5.114,-5.1166,-5.1111,-5.1205,-5.1209,-5.1213,-5.1264,-5.1273,-5.1281,0,0,0,0,0,-5.1155,-5.119,-5.1176,-5.1178,-5.1183,-5.1197,-5.1198,-5.1175,-5.1152,-5.1168,-5.1157,-5.113,-5.1163,-5.1141,-5.1143,-5.1169,-5.1203,-5.1208,-5.1212,-5.1261,-5.1271,-5.1281,0,0,0,0,0,0,-5.1205,-5.1188,-5.1172,-5.1204,-5.1203,-5.1189,-5.1208,-5.1187,-5.1192,-5.1187,-5.1159,-5.1157,-5.1187,-5.1182,-5.1157,-5.1213,-5.1179,-5.1184,-5.1214,-5.1225,-5.1233,-5.1232,-5.1112,0,0,0,0,0,-5.122,-5.1233,-5.1218,-5.1248,-5.1248,-5.1229,-5.1234,-5.1218,-5.1215,-5.1213,-5.1204,-5.1202,-5.1212,-5.1219,-5.1227,-5.1265,-5.1262,-5.1285,-5.1293,-5.13,-5.1303,-5.1323,-5.1333,-5.1229,-5.1229,-5.1229,0,0,-5.125,-5.1243,-5.1252,-5.1258,-5.1255,-5.1269,-5.1228,-5.1245,-5.1255,-5.1216,-5.1239,-5.1233,-5.1229,-5.1262,-5.1276,-5.1258,-5.1332,-5.1306,-5.1311,-5.1311,-5.1329,-5.1339,-5.1348,-5.1233,-5.1232,-5.1231,0,0,-5.1312,-5.1309,-5.1333,-5.1332,-5.1328,-5.1316,-5.1322,-5.1312,-5.1306,-5.133,-5.1301,-5.1314,-5.1332,-5.133,-5.1332,-5.1398,-5.1374,-5.1402,-5.1443,-5.1463,-5.1471,-5.1478,-5.15,-5.1509,-5.1407,-5.1407,-5.1407,0,-5.135,-5.137,-5.1349,-5.1367,-5.137,-5.1338,-5.1363,-5.1363,-5.1362,-5.1365,-5.1346,-5.1369,-5.1364,-5.1396,-5.1412,-5.1416,-5.1421,-5.1401,-5.1472,-5.1479,-5.1485,-5.1506,-5.1514,-5.141,-5.141,-5.141,-5.1409,0,-5.1416,-5.1431,-5.1452,-5.1452,-5.1459,-5.1481,-5.1463,-5.1472,-5.1457,-5.1447,-5.1472,-5.1466,-5.1472,-5.148,-5.1464,-5.151,-5.1499,-5.1477,-5.1441,-5.1498,-5.1517,-5.1525,-5.1415,-5.1414,-5.1413,-5.1412,0,0,-5.1504,-5.1496,-5.1504,-5.1504,-5.15,-5.1511,-5.1533,-5.154,-5.1548,-5.155,-5.1567,-5.1585,-5.1564,-5.1567,-5.1551,-5.157,-5.1621,-5.1545,-5.1544,-5.1557,-5.167,-5.1685,-5.1694,-5.1608,-5.1609,-5.161,-5.167,0,-5.1562,-5.1597,-5.158,-5.1617,-5.1631,-5.1603,-5.1622,-5.1622,-5.1614,-5.1625,-5.1617,-5.1629,-5.1602,-5.1603,-5.1621,-5.1611,-5.1643,-5.1607,-5.1621,-5.1622,-5.1619,-5.1704,-5.1719,-5.1775,-5.1677,-5.1679,-5.168,0,-5.1632,-5.1638,-5.1677,-5.1672,-5.1677,-5.1694,-5.17,-5.1711,-5.1712,-5.1705,-5.171,-5.1691,-5.1712,-5.1681,-5.171,-5.1686,-5.1692,-5.1689,-5.169,-5.1688,-5.1651,-5.1701,-5.1793,-5.18,-5.1691,-5.169,-5.169,0,-5.169,-5.1709,-5.1734,-5.1736,-5.1731,-5.1744,-5.1742,-5.1741,-5.1747,-5.1753,-5.1757,-5.1766,-5.177,-5.1778,-5.1762,-5.1741,-5.1793,-5.176,-5.1787,-5.1787,-5.1796,-5.1794,-5.1886,-5.1805,-5.1805,-5.1805,-5.1805,0,-5.1754,-5.1779,-5.176,-5.1775,-5.1802,-5.1784,-5.1812,-5.1808,-5.1807,-5.1822,-5.1799,-5.1813,-5.1794,-5.1806,-5.1795,-5.182,-5.1823,-5.1818,-5.1814,-5.1818,-5.1818,-5.1818,-5.1813,-5.1807,-5.1807,-5.1806,-5.1806,0,-5.1821,-5.181,-5.1836,-5.1831,-5.183,-5.185,-5.1845,-5.186,-5.1853,-5.1871,-5.1875,-5.1863,-5.1877,-5.1864,-5.1877,-5.1869,-5.1902,-5.1894,-5.1902,-5.1898,-5.1925,-5.1922,-5.2017,-5.2029,-5.1943,-5.1944,-5.1945,0,-5.1861,-5.1879,-5.1877,-5.1885,-5.1885,-5.1899,-5.1906,-5.189,-5.1898,-5.1902,-5.1915,-5.1928,-5.1936,-5.196,-5.1952,-5.1963,-5.1953,-5.1986,-5.1954,-5.1958,-5.1951,-5.1948,-5.195,-5.1991,-5.1992,-5.1993,-5.1994,0,-5.1932,-5.1926,-5.1937,-5.1946,-5.1955,-5.1962,-5.1966,-5.1975,-5.1959,-5.197,-5.1984,-5.1991,-5.2005,-5.2017,-5.2026,-5.2025,-5.2006,-5.2005,-5.2011,-5.2013,-5.2016,-5.2013,-5.1916,-5.2001,-5.2001,-5.2,-5.2,-5.1999,-5.1985,-5.2,-5.2001,-5.2014,-5.2016,-5.2022,-5.2035,-5.2031,-5.2043,-5.2053,-5.2044,-5.2061,-5.2064,-5.2073,-5.2075,-5.2088,-5.2074,-5.2084,-5.2086,-5.2088,-5.2091,-5.2017,-5.209,-5.209,-5.209,-5.209,-5.209,0,-5.2053,-5.2053,-5.2065,-5.2073,-5.2084,-5.2069,-5.2074,-5.2084,-5.2099,-5.2103,-5.2113,-5.213,-5.2143,-5.2138,-5.2149,-5.2161,-5.2153,-5.2164,-5.2161,-5.2161,-5.2103,-5.2096,-5.2171,-5.2171,-5.2171,-5.2171,-5.2171,-5.2171,-5.2089,-5.2114,-5.2109,-5.2135,-5.2135,-5.2152,-5.2157,-5.2162,-5.2165,-5.2185,-5.2196,-5.2194,-5.2194,-5.2206,-5.2217,-5.2216,-5.222,-5.2234,-5.2229,-5.2174,-5.2165,-5.2158,-5.215,-5.2235,-5.2235,-5.2285,-5.2286,-5.2286]},{"header":{"parameterUnit":"m.s-1","parameterCategory":1,"la1":30.2991,"la2":30.254,"lo1":-89.0895,"lo2":-89.0444,"dy":0.0017,"dx":0.0017,"nx":28,"ny":28,"refTime":"2024-04-27T21:00:00:Z","depth":0,"parameterNumber":3,"parameterNumberName":"V-component_of_WINDS"},"data":[0,0,0,0,0,0,0,0,0,0,0,0,0,0,0,0,0,0,0,0,0,0,0,0,0,0,0,0,0,0,0,0,0,0,0,0,0,0,0,0,0,0,0,0,0,0,0,0,0,0,0,0,0,0,0,0,0,0,5.1006,5.1007,0,5.1042,5.1043,5.1043,5.1076,5.1077,5.1077,5.1077,5.1109,5.1109,5.111,0,0,0,0,0,0,0,0,0,0,0,0,0,5.0963,5.0964,5.1006,5.1007,5.1007,5.1042,5.1043,5.1043,5.1076,5.1077,5.1077,5.1078,5.1109,5.1109,5.111,0,0,0,0,0,0,0,0,0,0,0,0,0,5.0989,5.0964,5.1006,5.1028,5.103,5.1042,5.1043,5.1044,5.1076,5.1077,5.1077,5.1078,5.1109,5.1109,5.111,5.1102,0,0,5.1112,5.1112,0,0,0,0,0,0,0,0,5.0987,5.099,5.1024,5.1027,5.1029,5.1056,5.1039,5.1063,5.1076,5.1059,5.1077,5.1078,5.109,5.1093,5.1098,5.1103,5.1105,5.1112,5.1113,5.1113,5.1113,0,0,0,0,0,0,0,5.0985,5.0989,5.1021,5.1025,5.1028,5.1035,5.1039,5.1044,5.107,5.106,5.1063,5.1067,5.1092,5.1097,5.1099,5.1105,5.1112,5.1113,5.1113,5.1113,5.1108,5.1108,0,0,0,0,0,0,5.0981,5.0987,5.1019,5.1022,5.1009,5.1035,5.104,5.1046,5.107,5.1075,5.1066,5.1068,5.1096,5.1098,5.11,5.1094,5.1113,5.1114,5.1114,5.1109,5.1108,5.1108,0,0,0,0,0,0,5.098,5.0983,5.1018,5.1005,5.101,5.1035,5.1042,5.1047,5.1052,5.1075,5.108,5.1067,5.1096,5.1099,5.1102,5.1096,5.1114,5.1114,5.111,5.1109,5.1108,5.1081,0,0,0,0,0,0,5.0978,5.0983,5.098,5.1005,5.1011,5.102,5.1042,5.1047,5.1054,5.1057,5.1077,5.1081,5.1097,5.1101,5.1103,5.1097,5.1115,5.111,5.1109,5.1108,5.1082,5.1079,5.1076,0,0,0,0,0,5.0977,5.0969,5.098,5.0984,5.1008,5.102,5.1023,5.1043,5.1053,5.1051,5.1066,5.108,5.1096,5.1101,5.1103,5.1097,5.1111,5.1109,5.1108,5.1084,5.108,5.1076,0,0,0,0,0,0,5.0941,5.0973,5.0985,5.0986,5.1,5.1025,5.1023,5.1038,5.1048,5.105,5.1073,5.1077,5.1078,5.1088,5.1093,5.1092,5.1105,5.1105,5.1086,5.1082,5.1079,5.1077,5.1116,0,0,0,0,0,5.0933,5.0941,5.0968,5.0966,5.0973,5.0997,5.1002,5.1017,5.1032,5.1038,5.1053,5.1066,5.1074,5.1078,5.1087,5.1084,5.1089,5.1081,5.1078,5.1075,5.1074,5.1076,5.1073,5.1104,5.1104,5.1104,0,0,5.0917,5.0936,5.0939,5.096,5.0973,5.098,5.1001,5.1007,5.1013,5.1038,5.1043,5.1055,5.107,5.1071,5.1072,5.1079,5.1068,5.1074,5.1072,5.1072,5.1074,5.1071,5.1069,5.1103,5.1103,5.1103,0,0,5.0892,5.0907,5.0908,5.0921,5.0942,5.0958,5.0958,5.0982,5.0992,5.0997,5.1017,5.1023,5.1036,5.1048,5.1055,5.1037,5.1051,5.1039,5.1023,5.1024,5.1022,5.102,5.1015,5.1013,5.1038,5.1038,5.1038,0,5.0869,5.0882,5.0906,5.0912,5.0921,5.0947,5.0949,5.096,5.0981,5.0986,5.0994,5.1013,5.1025,5.103,5.1027,5.1031,5.1033,5.1037,5.1021,5.1019,5.1017,5.1013,5.1011,5.1037,5.1037,5.1037,5.1037,0,5.0854,5.0863,5.0861,5.0884,5.0893,5.0896,5.092,5.0926,5.0941,5.0956,5.0962,5.0978,5.0992,5.0994,5.1007,5.1001,5.1005,5.1017,5.1031,5.1013,5.1009,5.1008,5.1035,5.1035,5.1036,5.1036,0,0,5.0806,5.0845,5.0844,5.0856,5.0881,5.0888,5.0893,5.0908,5.0914,5.0927,5.0933,5.0945,5.0957,5.0965,5.0979,5.098,5.0968,5.0992,5.0993,5.0988,5.0964,5.0956,5.0954,5.0977,5.0977,5.0977,5.0964,0,5.0786,5.0799,5.0822,5.0827,5.0836,5.0862,5.0866,5.0882,5.0897,5.0906,5.0922,5.0931,5.0945,5.0951,5.0953,5.0969,5.0963,5.097,5.0982,5.0982,5.0978,5.0952,5.0943,5.093,5.0962,5.0962,5.0962,0,5.0764,5.078,5.0787,5.0815,5.0819,5.0823,5.0841,5.0849,5.0868,5.0879,5.089,5.0907,5.0913,5.0926,5.0936,5.094,5.0946,5.0955,5.0955,5.0957,5.0971,5.0954,5.0926,5.0924,5.0959,5.096,5.096,0,5.0731,5.0753,5.0761,5.077,5.0802,5.0804,5.0817,5.0837,5.0846,5.0861,5.0867,5.0881,5.0889,5.0899,5.092,5.0927,5.0928,5.0942,5.0937,5.0937,5.0936,5.0936,5.0909,5.0938,5.0939,5.0939,5.0939,0,5.0707,5.071,5.0747,5.0752,5.0757,5.0783,5.0787,5.0802,5.082,5.0828,5.085,5.0856,5.0883,5.0892,5.0908,5.0915,5.0917,5.0926,5.0931,5.0925,5.0924,5.093,5.0931,5.0938,5.0938,5.0938,5.0938,0,5.067,5.0695,5.0705,5.0736,5.0744,5.0746,5.0772,5.0777,5.0794,5.0804,5.0808,5.0834,5.0847,5.0869,5.0886,5.0897,5.0901,5.0908,5.0896,5.0898,5.0893,5.0894,5.087,5.0868,5.0897,5.0897,5.0897,0,5.0653,5.0657,5.0689,5.0697,5.0711,5.0723,5.0733,5.0759,5.0768,5.0792,5.0794,5.081,5.0823,5.0842,5.0862,5.0877,5.0884,5.0875,5.0886,5.0882,5.0886,5.0886,5.0887,5.0872,5.0872,5.0871,5.0871,0,5.0622,5.0635,5.0649,5.0669,5.0681,5.0697,5.0714,5.0719,5.0749,5.0758,5.0773,5.0784,5.0804,5.0819,5.0837,5.0849,5.0865,5.0868,5.0868,5.0862,5.0856,5.0861,5.089,5.0868,5.0868,5.0869,5.0869,5.0869,5.0596,5.0601,5.0626,5.0642,5.0658,5.0674,5.0682,5.0702,5.0715,5.0735,5.075,5.0764,5.0784,5.081,5.0822,5.0833,5.084,5.0839,5.0839,5.0839,5.0838,5.0854,5.0836,5.0836,5.0836,5.0836,5.0836,0,5.0567,5.0585,5.0599,5.0624,5.0637,5.0653,5.0674,5.0683,5.0696,5.0715,5.0729,5.0747,5.0762,5.0784,5.0801,5.0806,5.0813,5.0809,5.0809,5.0812,5.083,5.0829,5.0803,5.0803,5.0803,5.0803,5.0803,5.0803,5.0553,5.0565,5.0581,5.0601,5.0618,5.0634,5.0645,5.066,5.0675,5.0695,5.0709,5.0724,5.0744,5.0763,5.0778,5.0784,5.079,5.0783,5.0792,5.0808,5.0811,5.0814,5.0813,5.0784,5.0784,5.0774,5.0774,5.0773]}]]